RH
4 4 5 8 11 10 11 11 11 12 13 14 14 11 10 9 10 14 15 18 24 26 25 25 27 32 37 42 43 43 43 46 47 47 52 56 59 61 61 62 58 54 55 63 69 66 63 62 60 58 54 50 46 41 38 39 43 45 44 43 42 40 41 40 39 38 35 33 33 32 31 31 32 32 31 32 32 32 31 31 31 30 31 32 32 30 32 35 36 33 29 27 26 24 22 22 22
5 6 7 8 10 10 11 9 12 14 14 15 12 11 11 10 10 15 20 23 26 28 27 26 27 33 37 40 40 40 44 46 44 46 50 52 55 55 57 59 57 57 58 66 73 69 65 63 59 57 55 51 46 42 40 41 44 47 46 44 43 42 42 41 39 38 36 35 34 33 32 33 33 33 32 32 32 31 31 30 31 30 30 31 33 33 32 36 39 37 34 31 27 24 23 22 21
6 8 9 9 9 9 10 10 14 16 15 15 10 11 11 12 13 16 23 27 29 29 28 27 27 30 34 37 37 39 45 48 46 47 50 51 51 51 54 56 57 58 60 69 73 69 67 65 61 57 56 53 47 43 40 42 45 47 47 46 44 43 43 41 40 38 37 35 34 34 34 34 33 33 32 32 32 31 30 29 30 30 30 31 33 35 34 36 40 40 39 36 32 28 24 23 23
6 8 9 9 9 9 11 11 15 17 15 13 10 11 11 16 20 21 24 26 30 31 29 30 30 30 32 37 39 38 40 43 45 45 46 48 48 50 53 55 55 56 59 66 69 67 66 66 64 60 57 53 46 43 41 42 45 47 48 47 46 44 43 42 40 38 37 36 35 35 35 34 33 33 32 32 32 31 27 25 27 29 29 30 32 35 34 37 40 42 42 39 37 34 26 24 25
8 9 9 9 9 9 10 12 14 15 13 11 11 11 12 17 23 25 25 25 29 32 32 33 34 33 32 35 36 38 39 38 39 39 41 44 45 48 50 52 52 54 60 65 68 67 66 67 65 62 58 51 45 42 41 43 44 47 49 48 46 45 44 42 39 38 37 36 36 37 36 34 32 32 31 30 30 29 26 22 23 26 28 28 30 32 33 36 39 43 44 41 39 36 29 26 28
9 9 8 9 9 9 11 12 13 13 10 9 10 11 13 18 23 26 26 27 31 33 31 32 35 35 36 36 36 40 39 37 38 37 40 43 46 47 46 49 50 53 59 63 67 69 69 68 64 62 56 48 44 42 41 42 45 48 49 47 46 46 44 41 39 38 37 36 37 37 36 33 30 30 30 31 31 30 28 22 21 24 26 27 27 29 31 34 39 42 44 43 40 37 32 29 31
8 9 9 9 10 10 13 14 13 12 9 9 10 11 13 19 23 25 27 30 34 37 33 34 36 36 39 38 40 42 38 37 38 40 42 46 50 49 48 49 51 56 61 63 67 68 68 66 62 60 53 45 42 40 42 44 45 48 48 47 45 44 43 42 40 38 37 36 36 36 35 32 29 30 32 33 33 32 30 24 21 23 27 29 27 28 32 34 38 42 44 44 41 38 34 31 33
9 9 9 9 12 11 13 13 11 11 9 9 11 10 12 17 18 21 28 29 32 37 36 38 38 40 43 39 44 46 41 40 41 43 45 48 51 52 51 49 52 60 65 68 69 66 64 63 62 59 50 44 42 41 44 46 48 50 48 45 43 42 43 42 39 37 36 36 35 34 34 31 30 30 33 34 35 34 32 26 22 22 24 29 30 30 33 34 37 40 41 44 41 38 36 32 35
9 10 9 11 13 12 12 11 9 8 7 8 11 11 13 15 16 19 24 27 31 35 35 36 35 43 48 43 48 49 46 45 44 46 46 48 50 53 53 51 56 63 68 71 70 67 64 63 60 53 46 43 44 45 47 49 52 52 48 45 43 42 43 42 38 36 35 35 33 32 32 31 30 32 35 37 39 38 35 30 24 22 23 27 31 32 34 34 35 36 36 39 38 37 38 34 35
9 10 10 11 13 13 13 11 10 9 9 9 12 12 13 14 16 18 21 27 31 34 34 32 35 44 48 46 51 53 51 49 46 48 48 50 53 56 54 53 60 67 71 72 69 68 67 63 55 49 46 46 47 48 49 51 52 51 47 45 43 42 42 40 37 36 35 34 33 32 31 32 33 35 38 40 41 41 38 34 28 25 24 26 30 33 35 34 32 31 31 32 33 35 38 36 34
11 10 10 12 13 13 13 12 11 11 11 11 11 11 12 14 17 19 20 26 31 36 34 30 37 44 46 47 51 52 51 49 48 48 48 50 55 58 55 56 65 70 74 73 69 69 67 60 53 50 50 49 50 50 50 51 51 49 46 45 44 43 41 40 37 35 35 34 34 33 32 33 37 39 42 44 43 43 42 38 34 31 29 28 29 33 35 36 33 29 27 25 28 34 37 35 33
13 12 11 13 14 14 12 12 12 12 13 12 11 11 12 14 17 17 17 22 29 34 31 28 37 41 43 46 48 49 49 50 50 49 48 49 56 59 58 60 66 70 73 73 70 69 66 59 55 54 53 51 50 48 49 49 48 47 45 44 43 41 40 39 38 36 35 35 37 36 35 35 38 40 42 44 43 41 41 40 38 37 37 35 34 35 36 35 33 31 28 23 22 27 32 33 33
13 13 12 13 15 14 11 13 14 13 14 13 12 12 13 15 16 17 16 20 25 29 27 27 33 36 41 46 49 51 52 53 51 50 49 51 57 60 63 62 63 67 69 72 72 68 64 61 59 58 56 53 51 50 50 49 48 47 46 44 41 41 41 41 38 36 36 38 39 39 38 37 37 38 41 43 42 40 39 39 39 37 38 38 37 39 39 37 33 31 29 26 21 20 25 29 31
12 13 12 14 14 13 11 12 14 14 14 13 12 13 14 15 16 16 19 24 27 29 30 31 31 34 42 45 49 53 54 54 52 52 51 52 55 59 64 64 63 65 65 72 73 68 65 64 63 61 59 57 56 54 51 50 49 47 46 43 41 43 44 43 40 39 40 41 42 42 40 39 37 39 43 45 45 42 40 40 39 37 36 36 36 37 39 38 37 36 32 28 25 20 21 26 28
12 12 13 14 14 14 11 11 14 14 14 13 12 13 14 15 17 18 22 28 31 32 33 33 28 32 44 45 48 56 57 56 54 54 54 54 55 59 63 63 65 66 65 68 67 67 68 67 65 63 61 60 58 56 53 52 50 48 46 42 42 44 44 42 42 44 45 45 45 45 44 43 42 43 46 48 48 46 44 43 43 41 39 38 36 35 35 36 40 44 40 32 29 24 21 25 26
12 12 13 14 14 14 12 12 14 14 14 13 13 15 16 17 19 20 22 25 31 32 30 32 28 31 42 42 44 53 57 57 55 54 56 58 57 56 57 58 63 64 63 62 63 69 71 68 66 63 61 60 58 56 55 54 52 49 45 42 42 42 40 39 42 46 47 48 48 46 45 46 47 46 48 51 51 50 49 50 49 47 44 41 39 35 34 35 39 46 48 39 33 28 24 26 27
12 12 13 14 14 13 13 14 15 14 14 14 16 17 19 20 20 21 24 25 29 29 26 30 31 31 37 39 41 47 51 52 51 52 54 57 56 56 55 55 57 59 61 63 67 71 70 67 64 62 60 57 56 55 56 56 54 50 47 46 45 42 40 39 41 45 46 47 46 43 44 46 46 46 49 53 55 55 54 55 53 49 44 41 40 38 35 35 38 45 50 43 36 32 28 30 29
11 14 14 13 13 12 12 14 15 14 14 14 16 20 21 20 20 21 26 29 29 29 29 31 33 34 38 40 42 44 45 46 48 51 52 54 55 57 57 58 61 63 66 70 70 69 67 65 62 60 59 58 56 55 57 58 57 55 52 52 50 46 45 45 43 43 43 42 41 40 43 46 46 47 51 54 56 58 59 58 56 52 46 41 40 39 37 37 39 45 50 46 38 35 33 34 32
12 14 14 12 12 12 12 14 15 14 15 14 14 18 20 20 20 19 26 32 30 32 35 33 34 38 40 41 42 42 43 44 47 51 53 54 55 55 55 60 66 69 71 70 68 65 64 62 60 60 59 59 57 57 60 60 59 57 54 51 48 46 46 47 44 42 42 41 42 42 45 48 48 50 53 54 56 57 58 59 57 55 52 47 43 41 40 39 40 45 49 45 38 35 37 38 36
12 12 13 12 12 13 12 14 16 15 14 14 14 15 17 19 19 18 26 33 32 35 36 34 37 39 40 41 41 41 41 40 42 47 49 51 54 52 50 57 65 68 69 67 64 62 61 57 57 60 61 57 54 55 58 58 59 58 53 49 46 43 43 43 42 44 44 43 43 46 50 54 52 53 53 52 54 58 61 61 57 54 56 56 55 51 48 46 44 46 45 39 35 36 41 41 38
13 12 12 12 12 13 14 15 15 15 14 13 14 14 16 18 17 18 24 31 35 36 32 29 33 39 41 42 41 40 40 39 40 42 44 47 50 49 48 54 58 60 63 63 62 59 56 54 56 60 60 53 48 49 51 52 53 53 50 46 41 39 40 42 45 48 48 47 48 50 55 58 59 60 60 56 54 60 64 63 60 54 55 60 62 60 59 57 53 51 44 36 35 39 46 47 42
12 12 12 12 12 13 14 14 14 15 14 13 14 14 16 17 17 17 19 27 33 31 26 23 28 35 40 41 42 42 43 43 43 46 48 50 51 50 49 52 55 58 60 58 56 54 52 54 56 55 52 49 48 48 48 46 45 47 48 43 36 36 39 42 46 48 47 49 52 54 59 64 65 67 68 62 55 60 67 66 63 60 58 61 64 64 64 62 59 56 47 37 37 45 52 53 49
13 13 12 13 12 13 14 14 14 13 13 13 13 14 16 17 18 17 16 20 24 23 23 23 27 33 38 41 42 44 46 46 46 49 51 52 51 51 50 51 55 58 56 53 51 50 52 54 53 48 43 45 47 47 46 43 40 40 41 38 33 35 38 39 43 46 45 48 55 59 65 69 68 68 70 68 61 65 70 67 66 67 65 63 64 65 65 64 62 60 53 41 40 48 55 57 56
13 13 12 13 12 13 14 14 14 13 13 13 13 14 15 17 18 19 17 17 20 24 24 24 30 38 44 46 45 45 45 45 45 47 49 50 50 51 54 54 56 56 53 51 50 50 52 52 49 44 40 41 43 43 41 39 36 33 32 32 31 33 36 38 40 43 45 48 52 59 66 69 67 66 69 70 67 70 73 68 67 70 70 66 66 67 65 65 65 63 61 56 55 56 55 55 58
13 13 12 12 12 12 13 14 14 13 13 13 14 14 15 17 17 20 21 20 25 28 26 27 35 42 47 48 46 45 45 46 46 46 48 49 52 53 55 57 58 56 54 51 50 51 50 49 47 45 43 41 40 39 36 33 32 31 30 30 30 31 33 37 37 38 43 46 48 54 63 65 65 65 67 67 66 70 73 69 68 69 70 70 69 68 67 67 68 66 63 66 69 66 58 54 56
13 13 13 13 12 12 12 13 13 13 13 12 13 13 14 14 16 22 24 27 31 30 30 35 39 43 46 46 45 45 47 49 51 58 57 51 55 56 54 59 61 58 54 52 51 51 51 49 47 45 44 41 38 37 34 32 31 30 30 30 30 30 32 36 37 36 40 44 46 52 59 60 64 67 66 65 63 67 69 65 65 66 66 67 65 66 68 67 67 67 64 66 70 69 65 60 57
13 13 13 13 13 12 12 13 13 13 13 12 12 12 13 12 16 24 28 31 33 34 39 41 42 45 46 45 46 47 48 47 51 63 67 58 54 56 58 62 61 56 53 53 53 51 50 48 44 42 42 39 37 36 35 33 32 31 31 31 31 31 33 36 36 36 39 41 43 51 57 58 63 68 67 63 60 63 65 64 69 70 64 61 61 64 64 62 62 65 64 64 66 69 72 70 64
14 13 14 13 13 13 12 13 13 13 13 13 13 13 14 12 16 24 29 34 34 36 43 44 44 46 45 45 46 47 46 45 45 49 59 62 57 58 61 61 59 56 53 54 55 50 46 43 42 42 40 37 35 36 34 32 31 32 33 31 32 31 33 34 35 36 37 38 41 49 55 55 59 65 64 61 57 61 65 68 72 68 60 55 55 59 58 56 58 61 59 57 62 67 70 69 64
14 14 14 14 14 12 12 13 13 13 12 12 13 13 15 14 16 22 29 37 37 36 42 45 46 47 46 45 45 45 42 44 46 46 56 63 60 59 59 59 59 59 56 54 51 46 42 41 42 41 39 35 36 37 33 32 31 32 33 30 29 29 30 33 34 36 37 37 40 45 52 54 57 60 60 62 59 60 64 63 63 56 51 51 51 53 55 55 55 58 57 54 56 62 64 61 57
14 14 13 13 13 11 11 12 12 12 12 12 13 15 17 17 16 22 30 36 38 39 41 43 45 46 47 47 47 44 43 47 48 52 61 62 59 60 57 58 60 60 57 50 44 42 42 42 39 38 37 34 36 38 32 29 30 30 30 28 27 27 28 29 30 32 37 40 42 44 50 53 53 55 57 62 60 57 58 57 53 49 47 49 49 51 53 55 55 54 58 58 57 59 60 59 59
14 14 14 12 12 11 10 10 11 11 12 12 13 16 17 17 17 23 31 34 36 41 43 44 47 49 48 48 49 46 46 50 50 53 60 59 59 61 58 59 59 58 54 47 42 42 42 40 37 36 35 35 35 35 30 28 30 29 29 28 27 27 27 27 25 27 35 41 42 44 49 50 54 56 54 58 57 50 53 55 51 47 46 48 49 50 51 53 55 53 56 59 59 58 57 59 62
14 13 16 15 12 12 11 10 11 12 13 13 14 17 18 19 19 24 31 32 34 41 45 47 49 50 48 47 47 48 48 51 49 52 58 56 57 58 57 59 57 54 50 44 43 42 40 38 36 36 36 35 34 32 30 30 32 31 30 29 28 27 27 27 26 27 31 35 39 43 49 52 56 59 55 56 54 46 48 55 53 48 48 48 46 49 52 51 50 52 54 54 53 54 55 58 61
17 16 19 19 15 15 15 14 14 15 15 16 17 19 20 23 24 25 30 33 34 40 46 50 52 51 50 48 47 48 49 50 49 51 53 53 54 53 53 55 54 52 49 44 43 42 40 38 36 37 37 36 34 32 31 31 32 31 31 30 28 29 30 29 29 30 30 31 38 46 52 56 59 60 56 52 51 45 47 53 53 49 49 47 44 47 53 51 46 47 50 50 49 49 50 55 60
23 21 21 21 19 18 19 18 16 17 18 19 19 21 21 24 27 29 33 37 37 40 47 52 55 54 53 51 47 45 45 46 48 48 50 53 54 51 51 55 55 53 50 45 45 44 39 36 34 33 36 34 32 30 27 27 31 33 32 31 30 31 31 30 29 31 34 36 43 51 54 58 60 57 52 47 46 46 46 47 46 45 45 44 44 47 51 52 47 43 44 46 47 45 46 49 55
24 26 26 27 26 24 23 22 19 18 21 22 21 21 21 25 29 34 36 39 40 40 46 51 54 56 55 52 47 44 43 42 44 45 48 52 53 52 53 57 56 53 52 48 49 45 36 33 30 28 31 29 27 26 25 25 29 32 32 33 33 32 30 29 29 30 34 38 44 52 56 58 57 52 48 43 42 45 45 44 41 42 41 40 43 44 47 51 50 46 43 43 43 43 43 44 50
24 27 30 31 32 31 27 24 21 20 22 25 24 21 22 26 30 34 36 39 40 40 45 48 50 53 52 50 49 47 45 42 43 45 49 53 55 55 55 56 54 52 56 55 51 43 34 32 29 27 28 27 27 27 26 26 28 31 33 35 36 34 30 29 30 30 31 35 40 46 53 58 58 53 51 47 43 45 46 45 42 42 41 39 40 41 44 50 50 47 45 44 42 41 40 39 47
25 29 30 32 34 32 28 26 22 21 24 26 26 23 24 28 32 34 35 38 40 39 42 44 44 47 48 48 48 49 49 45 43 45 48 51 55 58 56 56 52 48 54 56 50 40 34 33 31 30 29 29 31 29 27 29 30 32 33 34 35 33 31 29 30 30 31 34 37 40 44 50 51 49 50 49 47 46 47 47 46 45 43 40 40 41 44 47 49 47 44 46 45 41 40 44 52
29 32 32 33 34 32 30 29 25 25 28 29 28 26 25 29 33 34 34 36 39 39 41 42 41 42 44 45 47 48 48 47 45 45 45 44 49 53 53 52 50 48 51 50 45 40 36 35 33 33 30 29 33 32 30 32 33 33 32 34 35 33 31 27 26 28 29 31 32 33 36 40 42 42 42 42 41 41 41 41 40 38 38 39 40 41 43 45 46 44 43 44 44 41 46 55 62
31 32 34 36 35 32 31 31 29 30 31 31 31 30 29 33 34 32 33 35 38 40 40 41 41 41 43 44 46 48 47 45 43 41 40 39 41 46 50 52 54 54 51 46 44 43 40 38 37 35 29 28 34 35 32 33 34 35 35 34 34 32 30 26 22 23 27 28 28 29 30 33 35 35 34 33 32 32 31 31 30 27 29 34 35 37 40 42 43 42 43 45 46 51 52 53 59
34 32 34 39 36 33 33 32 34 36 36 34 35 34 35 38 35 32 33 33 37 41 41 40 40 40 43 43 44 45 45 44 42 39 39 39 40 44 51 55 55 51 46 43 44 44 43 41 39 37 31 31 37 37 34 33 34 36 37 36 35 31 29 27 21 19 23 25 25 26 26 26 27 28 27 26 26 26 25 25 25 23 23 27 30 32 34 36 38 39 43 47 51 56 55 52 58
40 36 33 37 37 36 35 36 42 44 42 41 41 41 41 39 34 32 34 33 37 42 42 40 38 40 43 42 42 43 43 43 41 40 39 38 38 40 44 47 47 43 41 41 42 43 45 42 40 39 34 34 39 38 35 34 34 36 38 39 38 34 31 30 22 16 17 18 17 18 19 20 21 22 24 25 24 24 24 24 23 21 21 22 25 27 27 28 32 35 39 46 49 52 54 56 61
37 40 37 38 39 39 38 41 47 47 45 45 42 43 48 43 34 34 35 34 35 40 43 40 38 41 44 44 42 42 41 40 39 39 39 39 39 39 41 43 42 40 40 42 42 44 47 45 43 41 35 34 39 40 38 36 36 36 37 39 40 37 33 30 23 14 13 12 12 13 14 17 19 19 22 25 26 24 24 25 24 23 24 23 24 24 25 26 27 29 32 38 44 48 52 55 56
30 38 40 41 41 41 41 41 44 44 45 47 43 41 46 43 34 33 36 35 34 37 41 41 40 41 44 45 43 42 41 40 42 42 40 41 42 41 41 41 40 40 43 47 46 45 47 47 45 41 34 34 39 41 40 39 38 38 38 38 39 38 32 27 23 18 13 11 12 12 14 17 18 18 20 23 26 25 25 25 24 25 26 26 26 25 26 26 26 29 30 32 37 42 47 49 50
27 33 38 40 39 40 43 42 41 42 42 44 43 36 36 39 35 34 36 36 36 37 38 41 43 43 45 45 42 41 40 41 42 42 39 40 42 41 39 39 40 41 44 47 46 45 47 49 49 45 38 35 37 38 38 39 41 42 44 44 43 38 31 27 27 21 15 12 11 12 12 14 16 17 19 22 25 25 24 25 25 25 26 27 27 26 25 25 26 31 33 33 33 34 37 40 43
24 28 34 38 38 40 44 42 41 41 38 40 41 33 33 39 40 38 37 35 36 39 38 40 43 43 43 42 41 41 42 41 40 39 38 39 40 39 38 41 43 43 43 44 45 46 48 50 52 49 42 36 34 35 37 41 45 47 51 51 45 38 32 30 30 24 17 13 11 11 12 12 14 17 19 22 23 23 23 23 23 23 25 26 26 25 25 25 26 29 31 31 31 31 31 33 37
24 26 31 38 41 42 42 40 41 43 38 37 40 35 33 40 41 38 34 32 35 39 40 38 38 41 42 42 43 44 44 44 42 40 40 40 38 38 40 42 43 42 41 41 43 46 48 50 54 53 50 43 38 39 39 41 47 51 53 51 45 41 38 35 33 28 21 15 10 11 11 11 11 13 17 20 21 21 21 22 22 23 24 25 25 26 27 27 28 28 28 28 28 29 29 31 33
24 25 26 35 42 41 42 42 40 44 46 41 40 38 34 37 40 36 31 30 32 35 37 36 35 40 44 45 46 48 48 46 44 43 43 41 40 40 42 43 41 39 40 41 41 43 44 46 49 52 53 49 44 45 44 44 46 48 47 44 43 45 44 39 35 30 24 18 13 11 11 11 11 10 12 16 19 20 19 20 21 21 20 20 20 21 23 25 26 26 26 27 28 27 26 27 27
24 25 26 32 38 36 39 41 34 40 51 49 44 40 37 38 38 34 32 33 34 35 36 38 39 41 46 48 48 50 51 49 46 46 44 42 41 41 42 43 42 42 43 43 41 42 43 44 46 48 49 49 47 48 50 50 48 46 44 42 45 51 48 41 35 30 26 22 17 14 11 11 11 10 10 11 13 14 14 15 15 15 14 14 14 13 14 16 17 17 18 22 24 25 24 24 25
24 27 27 29 34 33 39 43 39 40 46 46 45 41 41 43 38 32 32 32 36 38 39 40 41 42 45 49 49 51 50 48 47 46 42 40 41 42 42 42 43 43 44 46 46 44 43 43 45 47 48 49 47 48 54 56 50 46 47 47 54 60 52 42 36 31 28 24 20 17 13 11 12 12 11 10 10 10 11 11 12 12 11 11 11 11 11 11 11 11 11 12 15 18 19 20 20
24 27 32 34 37 40 45 49 45 44 43 42 42 39 41 44 39 34 32 31 35 39 42 43 43 43 43 46 49 49 47 46 46 45 41 38 40 40 39 39 41 43 45 47 46 44 43 45 47 49 50 50 50 53 59 59 53 51 51 54 62 66 57 45 38 34 31 28 24 20 16 14 13 13 13 13 12 12 11 11 11 11 11 11 11 11 11 11 11 11 11 10 10 11 12 12 12
27 30 34 37 41 42 43 44 43 45 46 44 40 38 41 42 41 40 36 33 37 41 46 47 47 47 45 46 48 48 47 47 47 47 42 39 40 40 39 39 38 38 39 41 41 42 43 47 50 50 50 50 53 61 67 66 62 59 57 59 67 70 61 49 41 36 35 32 28 24 20 17 16 16 16 16 16 16 16 15 15 14 14 14 14 14 14 14 14 13 13 12 12 12 11 11 11
32 31 30 33 37 39 39 40 43 44 45 46 42 40 43 41 42 45 41 38 42 45 49 49 49 51 50 50 49 48 48 47 46 45 43 41 41 41 40 38 35 31 30 33 38 42 44 47 49 50 50 50 50 59 70 72 68 65 63 62 67 68 61 54 48 40 37 35 32 29 26 23 21 20 20 21 22 23 23 22 22 21 21 20 21 21 22 22 21 21 20 20 19 19 19 18 18
36 31 30 33 34 38 41 44 48 44 42 46 40 37 43 42 43 47 46 47 49 48 50 51 52 54 54 54 53 51 50 49 48 48 46 45 43 41 38 36 33 29 27 30 35 40 43 46 49 49 51 51 51 55 62 67 68 71 69 61 57 57 52 52 54 47 40 39 38 36 33 29 27 25 25 27 28 28 28 28 27 27 26 26 26 26 26 26 26 26 25 25 25 24 24 23 23
33 32 32 35 35 40 46 47 50 48 47 50 43 39 45 46 48 51 48 48 50 50 52 52 51 52 53 54 53 52 52 51 50 47 44 41 39 37 34 31 29 28 28 31 32 35 40 45 51 56 58 60 64 65 66 71 73 72 67 58 54 54 48 49 57 56 48 45 43 43 41 37 34 32 30 30 32 33 32 32 31 31 31 31 30 29 28 28 28 28 28 28 28 28 27 26 25
30 33 34 35 36 39 40 40 46 48 48 50 46 45 47 46 51 52 47 47 48 48 50 51 50 48 48 48 48 47 46 43 39 34 32 30 30 30 28 25 25 27 29 32 33 35 41 46 52 61 65 67 68 63 59 65 66 62 59 56 56 56 52 51 57 59 56 53 49 47 45 42 39 39 37 35 37 38 38 36 35 35 34 34 34 34 34 33 33 33 32 32 32 33 33 33 32
31 34 35 36 38 38 36 35 40 43 47 51 51 50 49 48 51 50 48 50 48 45 47 48 49 47 47 47 46 44 42 38 31 29 31 29 27 28 27 26 26 27 30 33 35 36 40 45 49 55 61 63 59 50 47 52 53 50 52 54 56 57 54 51 53 55 57 55 52 51 49 46 43 41 41 40 40 42 42 43 41 39 37 37 36 37 37 37 38 38 37 36 36 37 38 37 37
33 32 33 34 36 37 35 34 35 37 45 53 54 53 53 52 51 49 47 48 47 46 47 48 48 49 50 51 49 46 45 41 35 33 35 34 31 30 31 31 30 30 31 34 35 36 37 40 44 48 54 57 52 44 44 49 49 48 49 52 55 57 56 54 52 54 55 54 53 53 53 51 47 45 45 43 43 44 44 45 45 43 43 43 42 41 41 41 42 42 41 40 40 40 40 39 39
32 31 32 35 38 38 36 38 39 38 41 47 48 51 56 55 54 52 48 46 48 48 48 50 50 49 50 51 48 47 46 44 42 41 40 37 34 32 32 33 32 32 32 32 34 36 37 37 40 46 51 51 48 43 44 49 49 49 50 49 50 52 53 55 54 55 55 54 54 55 54 53 51 50 50 49 50 49 47 47 47 46 47 47 48 48 48 48 49 48 47 45 43 43 42 42 41